EST,Max TemperatureF,Mean TemperatureF,Min TemperatureF,Max Dew PointF,MeanDew PointF,Min DewpointF,Max Humidity, Mean Humidity, Min Humidity, Max Sea Level PressureIn, Mean Sea Level PressureIn, Min Sea Level PressureIn, Max VisibilityMiles, Mean VisibilityMiles, Min VisibilityMiles, Max Wind SpeedMPH, Mean Wind SpeedMPH, Max Gust SpeedMPH,PrecipitationIn, CloudCover, Events, WindDirDegrees
2012-11-1,52,46,40,41,38,36,87,70,60,29.71,29.67,29.63,10,8,0,14,8,20,0.00,6,,246
2012-11-2,52,46,42,37,34,32,74,58,48,29.87,29.74,29.70,10,10,10,23,12,30,0.00,7,Rain,271
2012-11-3,47,45,43,33,31,29,63,56,52,30.02,29.95,29.87,10,10,10,20,12,29,0.00,8,,288
2012-11-4,47,42,37,32,30,28,71,61,51,30.06,30.03,30.00,10,10,10,15,10,22,0.00,5,,304
2012-11-5,46,39,31,29,28,25,78,63,50,30.18,30.08,30.00,10,10,10,16,11,21,0.00,4,,321
2012-11-6,47,38,29,33,29,24,79,65,55,30.20,30.12,29.99,10,10,10,13,10,,0.00,4,,25
2012-11-7,41,38,35,36,34,30,100,88,65,29.96,29.86,29.82,10,10,5,21,15,28,0.49,7,Rain-Snow,333
2012-11-8,50,42,35,34,27,16,96,65,30,30.00,29.86,29.82,10,10,10,23,12,32,0.01,5,Rain,308
2012-11-9,54,44,34,37,30,18,83,57,44,30.23,30.14,30.01,10,10,10,18,10,20,0.00,0,,296
2012-11-10,60,48,35,45,39,34,95,76,46,30.40,30.33,30.23,10,10,10,8,2,,0.00,1,,143
2012-11-11,69,56,44,51,46,42,98,78,41,30.48,30.44,30.39,10,10,10,10,6,,0.00,0,,145
2012-11-12,71,58,44,61,51,45,100,91,57,30.45,30.37,30.17,10,7,0,16,6,,0.00,1,Fog,147
2012-11-13,63,49,35,61,44,31,100,90,73,30.45,30.31,30.14,10,9,3,28,14,33,0.26,7,Rain,313
2012-11-14,47,40,33,35,30,27,80,66,46,30.53,30.47,30.42,10,10,10,14,11,22,0.00,2,,9
2012-11-15,48,42,36,35,34,31,82,71,57,30.41,30.35,30.29,10,10,10,14,9,,0.00,6,,10
2012-11-16,47,40,32,34,31,28,87,71,51,30.42,30.34,30.29,10,10,10,14,7,,0.00,3,,341
2012-11-17,52,40,29,41,34,26,87,75,45,30.60,30.54,30.43,10,10,10,14,9,,0.00,0,,29
2012-11-18,52,44,36,41,39,34,93,79,64,30.61,30.56,30.48,10,10,9,14,10,21,0.00,3,,20
2012-11-19,50,44,39,43,41,37,93,83,72,30.46,30.32,30.21,10,10,10,16,11,,0.00,7,,355
2012-11-20,51,45,39,44,39,34,100,81,58,30.20,30.15,30.10,10,10,9,10,6,,0.00,4,,7
2012-11-21,54,44,33,40,35,30,93,80,40,30.22,30.17,30.12,10,10,10,12,6,,0.00,2,,356
2012-11-22,55,42,30,41,37,29,100,82,56,30.26,30.20,30.15,10,10,8,10,6,,0.00,0,,357
2012-11-23,59,46,33,47,38,34,100,92,51,30.14,30.02,29.74,10,3,0,15,1,25,0.00,2,Fog-Rain,215
2012-11-24,49,42,34,32,22,19,55,47,42,29.99,29.89,29.76,10,10,10,25,18,36,0.00,4,,287
2012-11-25,40,36,31,25,22,20,73,59,46,30.04,30.00,29.95,10,10,10,16,8,22,0.00,1,,240
2012-11-26,51,40,29,35,28,24,84,66,41,30.24,30.15,30.00,10,10,10,13,4,18,0.00,2,,254
2012-11-27,46,42,37,46,40,36,100,95,81,30.23,30.19,30.14,10,8,3,15,8,20,0.23,7,Rain,18
2012-11-28,43,36,29,36,29,24,93,75,48,30.36,30.26,30.20,10,10,10,15,9,22,0.00,4,,306
2012-11-29,47,38,29,32,26,23,89,66,41,30.44,30.38,30.35,10,10,10,13,7,,0.00,0,,242
2012-11-30,49,38,26,41,33,25,100,95,53,30.39,30.36,30.32,10,4,0,7,4,,0.00,1,Fog,155